THY72 LTFM-ZGGG

Flight info

Callsign THY72
Flight time N/A
Altitude 31000
Route EKAWE1D/35L EKAWE UT643 GAKSU UT310 SIN DCT REBLO M11 MATAL T916 SUBUT T923 ERLEV M11 RODAR A909 LEMOD/N0495F330 N644 REGET G325 HANGU P500 PS T400 SULOM M890 LKN A201 ANSOS/N0499F350 A201 LSO A599 LINSO/K0926S1070 A599 GYA GYA8
Aircraft B77W/H-SDE1E2E3FGHIJ2J3J4J5M1RWXY/LB1D1

Departure

Time 2026-05-06 04:55
Airport İstanbul Airport (LTFM)

Arrival

Time N/A
Airport Guangzhou Baiyun International Airport (ZGGG)
Time Latitude Longitude Altitude Speed Heading
2026-05-06 04:38 41.26802 28.74118 339 ft 0 kts 91°
2026-05-06 04:43 41.26802 28.74116 339 ft 2 kts 91°
2026-05-06 04:44 41.26802 28.74094 337 ft 2 kts 89°
2026-05-06 04:44 41.26801 28.74072 335 ft 2 kts 86°
2026-05-06 04:44 41.26799 28.74050 333 ft 2 kts 78°
2026-05-06 04:44 41.26794 28.74029 333 ft 2 kts 51°
2026-05-06 04:45 41.26781 28.74018 333 ft 1 kts
2026-05-06 04:45 41.26779 28.74018 333 ft 0 kts 360°
2026-05-06 04:47 41.26792 28.74018 333 ft 8 kts 360°
2026-05-06 04:47 41.26851 28.74018 334 ft 8 kts 359°
2026-05-06 04:47 41.26914 28.74016 335 ft 10 kts 359°
2026-05-06 04:48 41.26981 28.74015 334 ft 10 kts 359°
2026-05-06 04:48 41.27042 28.73989 335 ft 10 kts 307°
2026-05-06 04:48 41.27051 28.73895 339 ft 12 kts 270°
2026-05-06 04:48 41.27050 28.73789 339 ft 12 kts 268°
2026-05-06 04:49 41.27049 28.73683 335 ft 12 kts 269°
2026-05-06 04:49 41.27048 28.73573 335 ft 13 kts 269°
2026-05-06 04:49 41.27046 28.73452 335 ft 14 kts 269°
2026-05-06 04:49 41.27045 28.73312 336 ft 15 kts 269°
2026-05-06 04:50 41.27043 28.73173 339 ft 15 kts 269°
2026-05-06 04:50 41.27041 28.73044 339 ft 13 kts 264°
2026-05-06 04:50 41.26972 28.72988 334 ft 13 kts 182°
2026-05-06 04:50 41.26882 28.72988 334 ft 13 kts 179°
2026-05-06 04:51 41.26789 28.72991 335 ft 13 kts 179°
2026-05-06 04:51 41.26696 28.72993 338 ft 13 kts 179°
2026-05-06 04:51 41.26602 28.72995 334 ft 13 kts 179°
2026-05-06 04:51 41.26509 28.72997 334 ft 13 kts 179°
2026-05-06 04:52 41.26416 28.73000 335 ft 13 kts 179°
2026-05-06 04:52 41.26323 28.73002 336 ft 13 kts 179°
2026-05-06 04:52 41.26253 28.73002 337 ft 6 kts 186°
2026-05-06 04:52 41.26222 28.72948 336 ft 15 kts 253°
2026-05-06 04:53 41.26214 28.72808 339 ft 14 kts 269°
2026-05-06 04:53 41.26212 28.72679 338 ft 14 kts 269°
2026-05-06 04:53 41.26210 28.72575 336 ft 8 kts 269°
2026-05-06 04:53 41.26245 28.72527 336 ft 8 kts 345°
2026-05-06 04:54 41.26302 28.72522 335 ft 8 kts 358°
2026-05-06 04:54 41.26434 28.72520 338 ft 42 kts 359°
2026-05-06 04:54 41.26981 28.72509 338 ft 114 kts 359°
2026-05-06 04:54 41.28000 28.72490 335 ft 177 kts 359°
2026-05-06 04:55 41.29347 28.72454 601 ft 200 kts 358°
2026-05-06 04:55 41.30773 28.72416 1028 ft 210 kts
2026-05-06 04:55 41.32243 28.72441 1656 ft 212 kts
2026-05-06 04:55 41.33738 28.72471 2171 ft 219 kts
2026-05-06 04:56 41.35279 28.72498 2529 ft 225 kts
2026-05-06 04:56 41.36878 28.72523 2884 ft 235 kts
2026-05-06 04:56 41.38528 28.72586 3183 ft 242 kts 11°
2026-05-06 04:56 41.40022 28.73622 3347 ft 258 kts 48°
2026-05-06 04:57 41.40819 28.75781 3733 ft 267 kts 76°
2026-05-06 04:57 41.41242 28.78216 4186 ft 273 kts 73°
2026-05-06 04:57 41.41723 28.80662 4798 ft 273 kts 73°
2026-05-06 04:57 41.42214 28.83127 5047 ft 278 kts 72°
2026-05-06 04:58 41.42704 28.85614 5656 ft 277 kts 72°
2026-05-06 04:58 41.43186 28.88088 6345 ft 276 kts 72°
2026-05-06 04:58 41.43667 28.90564 6927 ft 277 kts 72°
2026-05-06 04:58 41.44152 28.93071 7470 ft 280 kts 72°
2026-05-06 04:59 41.44633 28.95563 8012 ft 283 kts 72°
2026-05-06 04:59 41.45123 28.98112 8573 ft 285 kts 72°
2026-05-06 04:59 41.45616 29.00682 9134 ft 287 kts 72°
2026-05-06 04:59 41.46112 29.03268 9685 ft 289 kts 72°
2026-05-06 05:00 41.46611 29.05875 10207 ft 293 kts 72°
2026-05-06 05:00 41.47127 29.08571 10377 ft 309 kts 72°
2026-05-06 05:00 41.47675 29.11426 10529 ft 326 kts 73°
2026-05-06 05:00 41.48250 29.14438 10680 ft 344 kts 73°
2026-05-06 05:01 41.48846 29.17566 10882 ft 360 kts 73°
2026-05-06 05:01 41.49468 29.20846 11314 ft 369 kts 73°
2026-05-06 05:01 41.50099 29.24191 11867 ft 374 kts 73°
2026-05-06 05:01 41.50736 29.27573 12581 ft 377 kts 73°
2026-05-06 05:02 41.51375 29.30973 13310 ft 379 kts 73°
2026-05-06 05:02 41.52021 29.34405 13981 ft 383 kts 73°
2026-05-06 05:02 41.52671 29.37869 14558 ft 387 kts 73°
2026-05-06 05:02 41.53329 29.41373 15137 ft 391 kts 73°
2026-05-06 05:03 41.53991 29.44912 15725 ft 395 kts 73°
2026-05-06 05:03 41.54651 29.48441 16319 ft 399 kts 73°
2026-05-06 05:03 41.55323 29.52046 16900 ft 402 kts 73°
2026-05-06 05:03 41.56001 29.55688 17468 ft 406 kts 74°
2026-05-06 05:04 41.56684 29.59360 18073 ft 410 kts 74°
2026-05-06 05:04 41.57372 29.63070 18601 ft 413 kts 74°
2026-05-06 05:04 41.58064 29.66808 19112 ft 417 kts 74°
2026-05-06 05:04 41.58761 29.70579 19612 ft 420 kts 74°
2026-05-06 05:05 41.59452 29.74328 20117 ft 423 kts 74°
2026-05-06 05:05 41.60156 29.78153 20599 ft 426 kts 74°
2026-05-06 05:05 41.60865 29.82014 21091 ft 429 kts 74°
2026-05-06 05:05 41.61578 29.85899 21568 ft 432 kts 74°
2026-05-06 05:06 41.62294 29.89814 22040 ft 436 kts 74°
2026-05-06 05:06 41.63014 29.93761 22506 ft 439 kts 74°
2026-05-06 05:06 41.63738 29.97737 22992 ft 442 kts 73°
2026-05-06 05:06 41.64466 30.01737 23449 ft 444 kts 73°
2026-05-06 05:07 41.65197 30.05767 23868 ft 447 kts 73°
2026-05-06 05:07 41.65930 30.09821 24240 ft 450 kts 73°
2026-05-06 05:07 41.66657 30.13845 24620 ft 452 kts 73°
2026-05-06 05:07 41.67404 30.17994 25012 ft 454 kts 73°
2026-05-06 05:08 41.68136 30.22061 25372 ft 457 kts 73°
2026-05-06 05:08 41.68879 30.26204 25730 ft 459 kts 73°
2026-05-06 05:08 41.69625 30.30374 26074 ft 462 kts 73°
2026-05-06 05:08 41.70374 30.34564 26428 ft 464 kts 73°
2026-05-06 05:09 41.71123 30.38771 26782 ft 466 kts 73°
2026-05-06 05:09 41.71874 30.42997 27121 ft 468 kts 73°
2026-05-06 05:09 41.72628 30.47249 27452 ft 470 kts 73°
2026-05-06 05:09 41.73384 30.51519 27778 ft 472 kts 73°
2026-05-06 05:10 41.74131 30.55751 28087 ft 474 kts 73°
2026-05-06 05:10 41.74890 30.60058 28407 ft 476 kts 73°
2026-05-06 05:10 41.75658 30.64379 28707 ft 478 kts 72°
2026-05-06 05:10 41.76469 30.68696 28989 ft 479 kts 72°
2026-05-06 05:11 41.77306 30.73023 29251 ft 481 kts 72°
2026-05-06 05:11 41.78150 30.77364 29531 ft 482 kts 72°
2026-05-06 05:11 41.78991 30.81718 29784 ft 483 kts 72°
2026-05-06 05:11 41.79826 30.86083 30087 ft 483 kts 72°
2026-05-06 05:12 41.80643 30.90383 30398 ft 482 kts 72°
2026-05-06 05:12 41.81463 30.94726 30724 ft 480 kts 72°
2026-05-06 05:12 41.82280 30.99058 31000 ft 480 kts 72°
2026-05-06 05:13 41.83923 31.07776 31083 ft 483 kts 72°
2026-05-06 05:13 41.85688 31.16397 31082 ft 476 kts 69°